• In Hungary
  • List of Countries
  • For 7 days
  • Water Temperature
  • Satellite Maps
  • Weather Map
  • News
  • Weather Widgets
  • user-avatar
    Login

    Hourly Weather Estelí

    Today, 15 October, Monday

    Time Temperature Precipitation Wind Pressure Humidity
    00:00 +21°C° 0 mm 1 mps 685 mmHg 95%
    01:00 +21°C° 0.1 mm 1 mps 685 mmHg 95%
    02:00 +21°C° 0.1 mm 1 mps 685 mmHg 95%
    03:00 +21°C° 0.1 mm 1 mps 685 mmHg 95%
    04:00 +21°C° 0.1 mm 1 mps 685 mmHg 95%
    05:00 +21°C° 0.1 mm 1 mps 685 mmHg 95%
    06:00 +21°C° 0.1 mm 1 mps 685 mmHg 95%
    07:00 +22°C° 0.1 mm 1 mps 685 mmHg 89%
    08:00 +24°C° 0.1 mm 1 mps 686 mmHg 84%
    09:00 +26°C° 0.1 mm 1 mps 686 mmHg 79%
    10:00 +26°C° 1.6 mm 1 mps 686 mmHg 78%
    11:00 +27°C° 1.6 mm 1 mps 686 mmHg 77%
    12:00 +28°C° 1.6 mm 1 mps 685 mmHg 77%
    13:00 +27°C° 2.6 mm 1 mps 685 mmHg 80%
    14:00 +26°C° 2.6 mm 1 mps 684 mmHg 84%
    15:00 +25°C° 2.6 mm 1 mps 683 mmHg 88%
    16:00 +24°C° 2.1 mm 1 mps 684 mmHg 90%
    17:00 +23°C° 2.1 mm 1 mps 684 mmHg 92%
    18:00 +22°C° 2.1 mm 1 mps 684 mmHg 94%
    19:00 +22°C° 1.2 mm 1 mps 684 mmHg 94%
    20:00 +22°C° 1.2 mm 1 mps 685 mmHg 95%
    21:00 +20°C° 1.2 mm 0 mps 685 mmHg 95%
    22:00 +19°C° 0.7 mm 0 mps 685 mmHg 96%
    23:00 +19°C° 0.7 mm 0 mps 685 mmHg 96%

    Tomorrow, 16 October, Tuesday

    Time Temperature Precipitation Wind Pressure Humidity
    00:00 +19°C° 0.7 mm 0 mps 685 mmHg 96%
    01:00 +19°C° 0.3 mm 0 mps 685 mmHg 96%
    02:00 +19°C° 0.3 mm 0 mps 684 mmHg 96%
    03:00 +19°C° 0.3 mm 0 mps 684 mmHg 96%
    04:00 +21°C° 0.1 mm 1 mps 684 mmHg 96%
    05:00 +21°C° 0.1 mm 1 mps 684 mmHg 96%
    06:00 +21°C° 0.1 mm 1 mps 685 mmHg 96%
    07:00 +22°C° 0.2 mm 1 mps 685 mmHg 91%
    08:00 +24°C° 0.2 mm 1 mps 686 mmHg 87%
    09:00 +25°C° 0.2 mm 1 mps 687 mmHg 82%
    10:00 +26°C° 1 mm 2 mps 686 mmHg 82%
    11:00 +26°C° 1 mm 2 mps 686 mmHg 81%
    12:00 +27°C° 1 mm 2 mps 686 mmHg 80%
    13:00 +26°C° 2.2 mm 2 mps 685 mmHg 83%
    14:00 +25°C° 2.2 mm 2 mps 684 mmHg 87%
    15:00 +25°C° 2.2 mm 2 mps 684 mmHg 90%
    16:00 +24°C° 1.9 mm 2 mps 684 mmHg 91%
    17:00 +23°C° 1.9 mm 1 mps 684 mmHg 93%
    18:00 +22°C° 1.9 mm 1 mps 684 mmHg 95%
    19:00 +22°C° 0.5 mm 1 mps 685 mmHg 95%
    20:00 +22°C° 0.5 mm 1 mps 685 mmHg 95%
    21:00 +21°C° 0.5 mm 1 mps 686 mmHg 96%
    22:00 +21°C° 0.1 mm 1 mps 686 mmHg 96%
    23:00 +21°C° 0.1 mm 1 mps 686 mmHg 96%

    Day after tomorrow, 17 October, Wednesday

    Time Temperature Precipitation Wind Pressure Humidity
    00:00 +21°C° 0.1 mm 1 mps 685 mmHg 96%
    01:00 +21°C° 0 mm 1 mps 685 mmHg 96%
    02:00 +20°C° 0 mm 1 mps 685 mmHg 96%
    03:00 +20°C° 0 mm 1 mps 684 mmHg 96%
    04:00 +20°C° 0 mm 1 mps 684 mmHg 96%
    05:00 +20°C° 0 mm 1 mps 684 mmHg 95%
    06:00 +20°C° 0 mm 1 mps 685 mmHg 95%
    07:00 +22°C° 0 mm 1 mps 685 mmHg 89%
    08:00 +23°C° 0 mm 1 mps 686 mmHg 83%
    09:00 +25°C° 0 mm 2 mps 687 mmHg 77%
    10:00 +26°C° 0.1 mm 2 mps 687 mmHg 74%
    11:00 +27°C° 0.1 mm 2 mps 687 mmHg 71%
    12:00 +28°C° 0.1 mm 2 mps 686 mmHg 67%
    13:00 +27°C° 1 mm 2 mps 686 mmHg 72%
    14:00 +27°C° 1 mm 2 mps 685 mmHg 76%
    15:00 +26°C° 1 mm 2 mps 684 mmHg 81%
    16:00 +25°C° 1.2 mm 1 mps 684 mmHg 85%
    17:00 +23°C° 1.2 mm 1 mps 684 mmHg 89%
    18:00 +22°C° 1.2 mm 1 mps 684 mmHg 94%
    19:00 +22°C° 0.6 mm 1 mps 685 mmHg 94%
    20:00 +21°C° 0.6 mm 1 mps 686 mmHg 94%
    21:00 +21°C° 0.6 mm 1 mps 686 mmHg 95%
    22:00 +21°C° 0 mm 1 mps 686 mmHg 95%
    23:00 +21°C° 0 mm 1 mps 686 mmHg 95%

    18 October, Thursday

    Time Temperature Precipitation Wind Pressure Humidity
    00:00 +20°C° 0 mm 1 mps 685 mmHg 95%
    01:00 +20°C° 0 mm 1 mps 685 mmHg 95%
    02:00 +20°C° 0 mm 1 mps 685 mmHg 95%
    03:00 +20°C° 0 mm 1 mps 684 mmHg 95%
    04:00 +20°C° 0 mm 1 mps 684 mmHg 95%
    05:00 +20°C° 0 mm 1 mps 685 mmHg 95%
    06:00 +20°C° 0 mm 1 mps 685 mmHg 95%
    07:00 +21°C° 0 mm 1 mps 686 mmHg 91%
    08:00 +23°C° 0 mm 1 mps 687 mmHg 87%
    09:00 +24°C° 0 mm 1 mps 687 mmHg 83%
    10:00 +25°C° 0.7 mm 2 mps 687 mmHg 82%
    11:00 +25°C° 0.7 mm 2 mps 687 mmHg 82%
    12:00 +25°C° 0.7 mm 2 mps 686 mmHg 81%
    13:00 +24°C° 2.2 mm 2 mps 686 mmHg 85%
    14:00 +24°C° 2.2 mm 1 mps 685 mmHg 89%
    15:00 +23°C° 2.2 mm 1 mps 684 mmHg 94%
    16:00 +22°C° 0.6 mm 1 mps 685 mmHg 94%
    17:00 +22°C° 0.6 mm 1 mps 685 mmHg 94%
    18:00 +21°C° 0.6 mm 1 mps 685 mmHg 95%
    19:00 +21°C° 0.1 mm 1 mps 686 mmHg 95%
    20:00 +21°C° 0.1 mm 1 mps 686 mmHg 95%
    21:00 +21°C° 0.1 mm 1 mps 687 mmHg 95%
    22:00 +20°C° 0.2 mm 1 mps 687 mmHg 95%
    23:00 +20°C° 0.2 mm 1 mps 686 mmHg 95%

    19 October, Friday

    Time Temperature Precipitation Wind Pressure Humidity
    00:00 +20°C° 0.2 mm 1 mps 686 mmHg 95%
    01:00 +20°C° 0.4 mm 1 mps 686 mmHg 95%
    02:00 +20°C° 0.4 mm 1 mps 685 mmHg 95%
    03:00 +20°C° 0.4 mm 1 mps 685 mmHg 94%
    04:00 +20°C° 0.3 mm 1 mps 685 mmHg 94%
    05:00 +20°C° 0.3 mm 1 mps 686 mmHg 94%
    06:00 +20°C° 0.3 mm 1 mps 686 mmHg 94%
    07:00 +20°C° 0 mm 2 mps 686 mmHg 90%
    08:00 +21°C° 0 mm 2 mps 687 mmHg 86%
    09:00 +24°C° 0 mm 2 mps 688 mmHg 82%
    10:00 +25°C° 0 mm 2 mps 687 mmHg 77%
    11:00 +26°C° 0 mm 2 mps 687 mmHg 72%
    12:00 +28°C° 0 mm 2 mps 686 mmHg 67%
    13:00 +28°C° 1 mm 2 mps 686 mmHg 69%
    14:00 +27°C° 1 mm 2 mps 685 mmHg 72%
    15:00 +27°C° 1 mm 1 mps 684 mmHg 74%
    16:00 +26°C° 0.5 mm 1 mps 685 mmHg 79%
    17:00 +24°C° 0.5 mm 1 mps 685 mmHg 84%
    18:00 +23°C° 0.5 mm 1 mps 685 mmHg 90%
    19:00 +22°C° 0.1 mm 1 mps 686 mmHg 91%
    20:00 +22°C° 0.1 mm 1 mps 686 mmHg 92%
    21:00 +22°C° 0.1 mm 1 mps 686 mmHg 93%
    22:00 +21°C° 0 mm 1 mps 686 mmHg 93%
    23:00 +21°C° 0 mm 1 mps 686 mmHg 94%

    20 October, Saturday

    Time Temperature Precipitation Wind Pressure Humidity
    00:00 +21°C° 0 mm 1 mps 685 mmHg 94%
    01:00 +20°C° 0 mm 1 mps 685 mmHg 94%
    02:00 +20°C° 0 mm 1 mps 685 mmHg 94%
    03:00 +20°C° 0 mm 1 mps 684 mmHg 95%
    04:00 +20°C° 0 mm 1 mps 685 mmHg 94%
    05:00 +20°C° 0 mm 1 mps 685 mmHg 94%
    06:00 +20°C° 0 mm 1 mps 686 mmHg 94%
    07:00 +22°C° 0 mm 1 mps 686 mmHg 88%
    08:00 +24°C° 0 mm 2 mps 687 mmHg 83%
    09:00 +26°C° 0 mm 2 mps 687 mmHg 77%
    10:00 +26°C° 0.3 mm 2 mps 687 mmHg 75%
    11:00 +27°C° 0.3 mm 2 mps 686 mmHg 73%
    12:00 +28°C° 0.3 mm 2 mps 686 mmHg 72%
    13:00 +27°C° 1.1 mm 2 mps 685 mmHg 75%
    14:00 +26°C° 1.1 mm 2 mps 685 mmHg 78%
    15:00 +26°C° 1.1 mm 2 mps 684 mmHg 81%
    16:00 +25°C° 0.4 mm 1 mps 684 mmHg 85%
    17:00 +24°C° 0.4 mm 1 mps 685 mmHg 88%
    18:00 +22°C° 0.4 mm 1 mps 685 mmHg 92%
    19:00 +22°C° 0 mm 1 mps 685 mmHg 92%
    20:00 +22°C° 0 mm 1 mps 686 mmHg 93%
    21:00 +21°C° 0 mm 1 mps 686 mmHg 94%
    22:00 +21°C° 0 mm 1 mps 686 mmHg 94%
    23:00 +21°C° 0 mm 1 mps 685 mmHg 94%
    Show more